Regional Weather Roundup
Issued by NWS Albany, NY

Home | Current Version | Previous Version | Graphics & Text | Print | Product List | Glossary Off
Versions: 1 2 3 4 5 6 7 8 9 10 11 12 13 14 15 16 17 18 19 20 21 22 23 24 25 26 27 28 29 30 31 32 33 34 35 36 37 38 39 40 41 42 43 44 45 46 47 48 49 50

000
ASUS41 KALY 191810
RWRALY

NEW YORK STATE HOURLY WEATHER ROUNDUP
NATIONAL WEATHER SERVICE ALBANY NY
200 PM EDT SUN OCT 19 2014

NOTE: "FAIR" INDICATES FEW OR NO CLOUDS BELOW 12,000 FEET WITH NO
SIGNIFICANT WEATHER AND/OR NO OBSTRUCTIONS TO VISIBILITY.

NYZ032-033-038>043-046>054-057>066-NYZ062>081-191900-
EAST


CITY           SKY/WX    TMP DP  RH WIND       PRES   REMARKS
ALBANY         PTSUNNY   47  28  47 W21G30    29.92S
GLENS FALLS    MOSUNNY   50  28  42 NW13G23   29.89F
POUGHKEEPSIE   SUNNY     54  28  36 NW14G25   29.90S
NEWBURGH       MOSUNNY   50  30  46 N20G31    29.92S
MONTGOMERY     SUNNY     50  27  40 N17G28    29.93R
WHITE PLAINS   PTSUNNY   53  31  42 NW22G29   29.86S
ISLIP          PTSUNNY   55  34  45 NW10G21   29.83S
NEW YORK CITY  MOSUNNY   53  32  44 NW23G33   29.89R
CENTRAL PARK   SUNNY     53  28  38 NW13G23   29.92S
$$

NYZ005>009-017-018-044>046-055-056-191900-
CENTRAL


CITY           SKY/WX    TMP DP  RH WIND       PRES   REMARKS
FULTON         CLOUDY    42  28  57 NW13      30.05R
SYRACUSE       CLOUDY    44  28  53 NW17      30.03S
ROME           CLOUDY    41  30  65 NW14      30.01F
ELMIRA         CLOUDY    45  29  53 W15       30.05R
BINGHAMTON     CLOUDY    40  27  59 NW13G24   29.98F WCI  32
MONTICELLO     PTSUNNY   41  27  56 NW18G31   29.94F
$$

NYZ026>034-041>043-191900-
NORTH


CITY           SKY/WX    TMP DP  RH WIND       PRES   REMARKS
WATERTOWN      CLOUDY    44  25  47 NW14      30.03R
FORT DRUM      NOT AVBL
MASSENA        CLOUDY    43  27  53 W12       29.97S
SARANAC LAKE   FLURRIES  35  30  82 VRB7G18   29.89R WCI  29
PLATTSBURGH    LGT RAIN  43  33  68 NW14G23   29.91S
$$

NYZ001>004-010>016-019>021-191900-
WEST


CITY           SKY/WX    TMP DP  RH WIND       PRES   REMARKS
NIAGARA FALLS  PTSUNNY   45  29  53 NW10      30.09F
BUFFALO        PTSUNNY   45  29  53 W12       30.09F
DUNKIRK        CLOUDY    44  31  60 W7        30.13S
JAMESTOWN      PTSUNNY   41  28  60 NW12      30.09S
WELLSVILLE     MOSUNNY   42  29  59 NW14G21   30.05F
ROCHESTER      CLOUDY    43  28  55 W13       30.08F
PENN YAN       CLOUDY    42  28  57 NW12G17   30.06S
$$

             KEY
       WCI = WIND CHILL INDEX
       VSB = VISIBILITY
       HX  = HEAT INDEX
$$


USA.gov is the U.S. government's official web portal to all federal, state and local government web resources and services.